• Em Portugal
  • Lista de países
  • Para 7 dias
  • Temperatura da água
  • Mapas de satélite
  • Mapa do tempo
  • Widgets de tempo
  • user-avatar
    Iniciar Sessão

    Previsão horária em Chişinău

    Hoje, 17 Dezembro, Domingo

    Tempo Temperatura Precipitação Vento Pressão Humidade
    00:00 +6°C° 0,1 mm 5 m/s 748 mmHg 75%
    01:00 +5°C° 0,1 mm 5 m/s 749 mmHg 75%
    02:00 +5°C° 0 mm 4 m/s 749 mmHg 75%
    03:00 +5°C° 0,3 mm 4 m/s 749 mmHg 75%
    04:00 +3°C° 0,3 mm 5 m/s 750 mmHg 76%
    05:00 +3°C° 0,3 mm 5 m/s 750 mmHg 76%
    06:00 +3°C° 0,2 mm 5 m/s 751 mmHg 76%
    07:00 +2°C° 0,2 mm 5 m/s 751 mmHg 76%
    08:00 +2°C° 0 mm 5 m/s 752 mmHg 74%
    09:00 +2°C° 0 mm 5 m/s 752 mmHg 73%
    10:00 +3°C° 0 mm 5 m/s 752 mmHg 71%
    11:00 +3°C° 0 mm 5 m/s 752 mmHg 70%
    12:00 +3°C° 0,1 mm 5 m/s 752 mmHg 70%
    13:00 +3°C° 0,1 mm 5 m/s 752 mmHg 69%
    14:00 +3°C° 0,1 mm 5 m/s 752 mmHg 69%
    15:00 +3°C° 0,1 mm 5 m/s 752 mmHg 71%
    16:00 +3°C° 0,1 mm 5 m/s 752 mmHg 72%
    17:00 +2°C° 0,1 mm 5 m/s 752 mmHg 73%
    18:00 +2°C° 0,1 mm 6 m/s 752 mmHg 74%
    19:00 +2°C° 0,1 mm 6 m/s 752 mmHg 75%
    20:00 +2°C° 0,1 mm 6 m/s 751 mmHg 76%
    21:00 +1°C° 0,2 mm 6 m/s 751 mmHg 78%
    22:00 +1°C° 0,2 mm 6 m/s 752 mmHg 79%
    23:00 0°C° 0,2 mm 7 m/s 752 mmHg 80%

    Amanhã, 18 Dezembro, Segunda-feira

    Tempo Temperatura Precipitação Vento Pressão Humidade
    00:00 -1°C° 0,4 mm 7 m/s 752 mmHg 81%
    01:00 -1°C° 0,4 mm 7 m/s 752 mmHg 83%
    02:00 -1°C° 0,4 mm 7 m/s 752 mmHg 84%
    03:00 -2°C° 0,6 mm 7 m/s 752 mmHg 85%
    04:00 -2°C° 0,6 mm 7 m/s 752 mmHg 87%
    05:00 -2°C° 0,6 mm 7 m/s 752 mmHg 88%
    06:00 -2°C° 0,4 mm 7 m/s 753 mmHg 88%
    07:00 -3°C° 0,4 mm 7 m/s 753 mmHg 87%
    08:00 -3°C° 0,4 mm 7 m/s 753 mmHg 87%
    09:00 -3°C° 0,1 mm 7 m/s 754 mmHg 86%
    10:00 -2°C° 0,1 mm 7 m/s 754 mmHg 85%
    11:00 -2°C° 0,1 mm 7 m/s 754 mmHg 84%
    12:00 -2°C° 0 mm 6 m/s 754 mmHg 83%
    13:00 -2°C° 0 mm 6 m/s 754 mmHg 82%
    14:00 -2°C° 0 mm 6 m/s 754 mmHg 80%
    15:00 -1°C° 0 mm 5 m/s 755 mmHg 81%
    16:00 -1°C° 0 mm 5 m/s 755 mmHg 82%
    17:00 -2°C° 0 mm 4 m/s 755 mmHg 82%
    18:00 -2°C° 0 mm 4 m/s 756 mmHg 83%
    19:00 -2°C° 0 mm 4 m/s 756 mmHg 83%
    20:00 -3°C° 0 mm 4 m/s 756 mmHg 83%
    21:00 -3°C° 0 mm 4 m/s 756 mmHg 83%
    22:00 -3°C° 0 mm 4 m/s 757 mmHg 83%
    23:00 -3°C° 0 mm 4 m/s 757 mmHg 83%

    Depois de amanhã, 19 Dezembro, Terça-feira

    Tempo Temperatura Precipitação Vento Pressão Humidade
    00:00 -3°C° 0 mm 4 m/s 757 mmHg 83%
    01:00 -3°C° 0 mm 4 m/s 757 mmHg 82%
    02:00 -3°C° 0 mm 4 m/s 758 mmHg 82%
    03:00 -3°C° 0 mm 4 m/s 758 mmHg 82%
    04:00 -4°C° 0 mm 4 m/s 758 mmHg 82%
    05:00 -4°C° 0 mm 4 m/s 758 mmHg 82%
    06:00 -4°C° 0 mm 4 m/s 758 mmHg 82%
    07:00 -4°C° 0 mm 4 m/s 758 mmHg 82%
    08:00 -4°C° 0 mm 4 m/s 759 mmHg 82%
    09:00 -3°C° 0 mm 4 m/s 759 mmHg 79%
    10:00 -2°C° 0 mm 5 m/s 759 mmHg 76%
    11:00 -2°C° 0 mm 5 m/s 760 mmHg 74%
    12:00 -1°C° 0 mm 5 m/s 760 mmHg 73%
    13:00 -1°C° 0 mm 5 m/s 760 mmHg 72%
    14:00 -1°C° 0 mm 5 m/s 760 mmHg 71%
    15:00 -2°C° 0 mm 4 m/s 760 mmHg 74%
    16:00 -1°C° 0 mm 3 m/s 760 mmHg 77%
    17:00 -2°C° 0 mm 2 m/s 761 mmHg 80%
    18:00 -2°C° 0 mm 3 m/s 761 mmHg 80%
    19:00 -2°C° 0 mm 3 m/s 761 mmHg 80%
    20:00 -4°C° 0 mm 3 m/s 762 mmHg 80%
    21:00 -4°C° 0 mm 3 m/s 762 mmHg 80%
    22:00 -4°C° 0 mm 3 m/s 762 mmHg 80%
    23:00 -4°C° 0 mm 3 m/s 762 mmHg 80%

    20 Dezembro, Quarta-feira

    Tempo Temperatura Precipitação Vento Pressão Humidade
    00:00 -4°C° 0 mm 3 m/s 762 mmHg 80%
    01:00 -4°C° 0 mm 3 m/s 763 mmHg 79%
    02:00 -4°C° 0 mm 3 m/s 763 mmHg 79%
    03:00 -4°C° 0 mm 3 m/s 763 mmHg 79%
    04:00 -4°C° 0 mm 3 m/s 763 mmHg 79%
    05:00 -5°C° 0 mm 3 m/s 762 mmHg 79%
    06:00 -5°C° 0 mm 3 m/s 763 mmHg 79%
    07:00 -4°C° 0 mm 2 m/s 763 mmHg 79%
    08:00 -4°C° 0 mm 2 m/s 763 mmHg 80%
    09:00 -3°C° 0 mm 2 m/s 763 mmHg 76%
    10:00 -4°C° 0 mm 3 m/s 763 mmHg 71%
    11:00 -3°C° 0 mm 4 m/s 764 mmHg 67%
    12:00 -3°C° 0 mm 4 m/s 763 mmHg 67%
    13:00 -3°C° 0 mm 4 m/s 763 mmHg 66%
    14:00 -3°C° 0 mm 4 m/s 763 mmHg 66%
    15:00 -3°C° 0 mm 4 m/s 763 mmHg 68%
    16:00 -2°C° 0 mm 3 m/s 763 mmHg 70%
    17:00 -4°C° 0 mm 3 m/s 763 mmHg 73%
    18:00 -3°C° 0 mm 2 m/s 763 mmHg 74%
    19:00 -3°C° 0 mm 2 m/s 763 mmHg 75%
    20:00 -3°C° 0 mm 2 m/s 764 mmHg 75%
    21:00 -3°C° 0 mm 2 m/s 764 mmHg 76%
    22:00 -3°C° 0 mm 2 m/s 764 mmHg 77%
    23:00 -3°C° 0 mm 2 m/s 764 mmHg 77%

    21 Dezembro, Quinta-feira

    Tempo Temperatura Precipitação Vento Pressão Humidade
    00:00 -3°C° 0 mm 2 m/s 764 mmHg 78%
    01:00 -3°C° 0 mm 2 m/s 763 mmHg 79%
    02:00 -4°C° 0 mm 2 m/s 763 mmHg 79%
    03:00 -4°C° 0 mm 2 m/s 763 mmHg 80%
    04:00 -4°C° 0 mm 2 m/s 763 mmHg 80%
    05:00 -4°C° 0 mm 2 m/s 763 mmHg 80%
    06:00 -4°C° 0 mm 2 m/s 763 mmHg 79%
    07:00 -4°C° 0 mm 2 m/s 763 mmHg 79%
    08:00 -2°C° 0 mm 1 m/s 763 mmHg 78%
    09:00 -3°C° 0 mm 2 m/s 762 mmHg 73%
    10:00 -3°C° 0 mm 2 m/s 762 mmHg 69%
    11:00 -2°C° 0 mm 2 m/s 762 mmHg 64%
    12:00 -1°C° 0 mm 2 m/s 762 mmHg 63%
    13:00 -1°C° 0 mm 3 m/s 761 mmHg 61%
    14:00 -1°C° 0 mm 3 m/s 760 mmHg 60%
    15:00 -1°C° 0 mm 2 m/s 760 mmHg 64%
    16:00 -2°C° 0 mm 2 m/s 760 mmHg 67%
    17:00 -3°C° 0 mm 2 m/s 759 mmHg 71%
    18:00 -3°C° 0 mm 2 m/s 759 mmHg 71%
    19:00 -3°C° 0 mm 2 m/s 759 mmHg 71%
    20:00 -3°C° 0 mm 2 m/s 759 mmHg 71%
    21:00 -3°C° 0 mm 2 m/s 758 mmHg 71%
    22:00 -3°C° 0 mm 2 m/s 758 mmHg 71%
    23:00 -3°C° 0 mm 2 m/s 758 mmHg 72%

    22 Dezembro, Sexta-feira

    Tempo Temperatura Precipitação Vento Pressão Humidade
    00:00 -3°C° 0 mm 2 m/s 757 mmHg 72%
    01:00 -4°C° 0 mm 2 m/s 757 mmHg 73%
    02:00 -4°C° 0 mm 2 m/s 756 mmHg 73%
    03:00 -4°C° 0 mm 2 m/s 756 mmHg 74%
    04:00 -4°C° 0 mm 2 m/s 755 mmHg 75%
    05:00 -2°C° 0 mm 1 m/s 755 mmHg 75%
    06:00 -2°C° 0 mm 1 m/s 755 mmHg 75%
    07:00 -2°C° 0 mm 1 m/s 755 mmHg 75%
    08:00 -2°C° 0 mm 1 m/s 755 mmHg 74%
    09:00 -3°C° 0 mm 2 m/s 755 mmHg 71%
    10:00 -2°C° 0 mm 2 m/s 755 mmHg 67%
    11:00 -2°C° 0 mm 2 m/s 754 mmHg 63%
    12:00 -1°C° 0 mm 2 m/s 754 mmHg 66%
    13:00 -1°C° 0 mm 2 m/s 754 mmHg 68%
    14:00 -1°C° 0 mm 2 m/s 754 mmHg 70%
    15:00 -1°C° 0 mm 2 m/s 754 mmHg 74%
    16:00 -2°C° 0 mm 2 m/s 754 mmHg 78%
    17:00 -2°C° 0 mm 2 m/s 754 mmHg 82%
    18:00 -2°C° 0 mm 2 m/s 754 mmHg 82%
    19:00 -2°C° 0 mm 2 m/s 754 mmHg 83%
    20:00 -2°C° 0 mm 2 m/s 754 mmHg 83%
    21:00 -2°C° 0 mm 2 m/s 754 mmHg 83%
    22:00 -2°C° 0 mm 2 m/s 754 mmHg 83%
    23:00 -2°C° 0 mm 2 m/s 754 mmHg 82%
    Mostrar mais

    XHprof extension not loaded